Regional Weather Roundup
Issued by NWS Newport/Morehead, NC

Current Version | Previous Version | Text Only | Print | Product List | Glossary On
Versions: 1 2 3 4 5 6 7 8 9 10 11 12 13 14 15 16 17 18 19 20 21 22 23 24 25 26 27 28 29 30 31 32 33 34 35 36 37 38 39 40 41 42 43 44 45 46 47 48 49 50
000
ASUS42 KMHX 190010
RWRMHX
WEATHER ROUNDUP FOR EASTERN NORTH CAROLINA
NATIONAL WEATHER SERVICE NEWPORT/MOREHEAD CITY NC
800 PM EDT THU SEP 18 2014

NOTE: "FAIR" INDICATES FEW OR NO CLOUDS BELOW 12,000 FEET
WITH NO SIGNIFICANT WEATHER AND/OR OBSTRUCTIONS TO VISIBILITY

NCZ015>017-031-032-045>047-102-103-190100-
NORTH COAST

CITY           SKY/WX    TMP DP  RH WIND       PRES   REMARKS
EDENTON        CLEAR     65  58  78 E3        30.03R
ELIZABETH CITY CLEAR     67  57  70 E6        30.04R
KITTY HAWK     CLEAR     70  55  60 E6        30.02R
MANTEO         CLEAR     69  56  62 E8        30.03R

$$

NCZ045>047-081-094-103-104-190100-
CENTRAL COAST

CITY           SKY/WX    TMP DP  RH WIND       PRES   REMARKS
FRISCO         CLEAR     68  57  68 NE8       30.01S
SWANQUARTER      N/A     70 N/A N/A E5        29.97S

$$

NCZ095-097-098-100-101-190100-
SOUTHERN COAST

CITY           SKY/WX    TMP DP  RH WIND       PRES   REMARKS
BEAUFORT       CLEAR     72  60  66 NE6       30.02R
CEDAR ISLAND     N/A     73 N/A N/A NE15G23   30.06S
JACKSONVILLE   CLEAR     73  60  63 E10       30.01R
NEWPORT        NOT AVBL
PINEY ISLAND   CLEAR     74  58  57 E12G20    30.01R
WILMINGTON     PTCLDY    74  62  66 E6        30.00R


$$

NCZ011>013-027>030-043-044-078>080-089-090>093-098-190100-
COASTAL PLAIN

CITY           SKY/WX    TMP DP  RH WIND       PRES   REMARKS
AHOSKIE        CLEAR     66  60  80 CALM      30.03R
CLINTON        CLEAR     71  65  83 CALM      29.99R
ELIZABETHTOWN  CLEAR     74  65  73 E3        29.99R
GOLDSBORO      CLEAR     70  67  91 E5        29.98R
GREENVILLE     CLEAR     70  61  73 E6        30.03R
HAVELOCK       PTCLDY    69  60  73 E7        30.02R
KENANSVILLE    CLEAR     71  62  73 E3        30.01R
KINSTON        CLEAR     72  61  68 E6        30.01R
NEW BERN       CLEAR     73  59  61 E7        30.02R
RICHLANDS      PTCLDY    70  61  73 E7        30.01R
ROANOKE RAPIDS NOT AVBL
ROCKY MOUNT    CLEAR     66  62  87 CALM      30.01R
WASHINGTON     CLEAR     68  57  68 CALM      30.02R
WHITEVILLE     PTCLDY    73  66  78 E5        29.98R

$$

AMZ130-135-150-152-154-156-158-170-250-252-270-ANZ085-086-088-633-658-670-190100-
MARINE OBSERVATIONS

STATION/POSITION TIME  TEMP    WIND        PRES    WAVE   SWELL
                       AIR SEA DIR/SP/G            HT/PER HT/PER
                 (UTC) (F)     (DEG/KT/KT) (MB)    (FT/S) (FT/S)
CHESAPEAKE LIGHT 2300   70     100/  8/  9 1017.4
BUOY 44014       0000   72 77   40/ 10/ 12 1016.5    4/12   3/12
DUCK             0000   71 75   60/ 13/ 14 1016.1
2E DUCK          0000                        N/A     3/12   2/12
OREGON INLET     0000   71 74   40/  9/ 13 1016.7
BUOY 44095       0000      76                N/A     4/11   2/11
20E OREGON INLET NOT AVBL
HATTERAS CG      0000   72 77   50/ 10/ 15 1016.7
DIAMOND BUOY     0000   72      20/ 17/ 21 1015.7    5/ 6   3/11
CAPE LOOKOUT     2300   75      50/ 17/ 18 1015.6
BEAUFORT LAB     0000   72 79   50/  4/  7 1015.9
30 SE NEW RIVER  0000   77 83   60/ 17/ 21 1015.7    5/12   2/12
5 SE WRIGHTSVILL 2300   74 81   90/ 16/ 21   N/A
BUOY 41002       2247   79 83   40/  8/ 10 1014.2    3/10   3/10
BUOY 41004       0000   81 83   60/  8/ 12 1013.6    3/10   3/10

$$



USA.gov is the U.S. government's official web portal to all federal, state and local government web resources and services.